User: anonymous   Login
Location: Libas
(9.8833°N, 125.9833°E)
Time: 16:12:32
(UTC+00:00)
Language:

Stardust Del rocket - Orbit

View from above orbital plane
View from above orbital plane
View from above satellite
View from above satellite

Ground track
Ground track

The orbit data is extracted from the following two-line orbital elements,

1 25619U 99003B   21018.52428385  .00011023 -41892-5  36885-3 0  9993
2 25619  22.4582 125.5772 2260493 194.4596 157.8800 10.86256010799442
Epoch (UTC): 18 January 2021 12:34:58
Eccentricity: 0.2260493
inclination: 22.4582°
perigee height: 287 km
apogee height: 4181 km
right ascension of ascending node: 125.5772°
argument of perigee: 194.4596°
revolutions per day: 10.86256010
mean anomaly at epoch: 157.8800°
orbit number at epoch: 79944

The dashed part of the orbit path shows where the satellite is in the earth's shadow,  

DLR